Wenatchee, WA
on Sunday, November 18, 2012

Sunday
Previous Day Next Day
Daily Summary
 ActualAverageRecord
Temperature
Mean Temperature °F 33°F  
Max Temperature 45°F 40°F 60°F (2003)
Min Temperature 34°F 27°F 4°F (1985)
Degree Days
Heating Degree Days 25 32  
Month to date heating degree days 478 515  
Since 1 July heating degree days 1277 1471  
Cooling Degree Days 0 0  
Month to date cooling degree days 0 0  
Year to date cooling degree days 294 249  
Moisture
Dew Point 33°F   
Average Humidity 80    
Maximum Humidity 93    
Minimum Humidity 56    
Precipitation
Precipitation T in 0.08 in 0.62 in (1982)
Month to date precipitation 1.32 1.23  
Year to date precipitation 18.42 13.57  
Snow
Snow 0.00 in 0.30 in in ()
Month to date snowfall 7.2 2.9  
Since 1 July snowfall 7.2 3.0  
Since 1 September snowfall 7.2 3.0  
Snow Depth 0.00 in   
Wind
Wind Speed 5 mph   
Max Wind Speed 18 mph   
Max Gust Speed 26 mph   
Visibility 8 miles   
Events Fog , Rain   

Key: T is trace of precipitation, MM is missing value
Source: NWS Daily Summary
Time(PST)TemperatureDew PointHumidity Pressure Visibility Wind DirectionWind SpeedGust SpeedPrecipitationEvents Conditions
12:43 AM 35.6°F 32.0°F 87% 29.69 in 10.0 miles East 3.5 mph - N/A   Partly Cloudy
12:55 AM 37.0°F 35.1°F 93% 29.72 in 10.0 miles East 4.6 mph - N/A   Partly Cloudy
1:55 AM 36.0°F 33.1°F 89% 29.73 in 10.0 miles NE 3.5 mph - N/A   Partly Cloudy
2:55 AM 35.1°F 32.0°F 89% 29.76 in 10.0 miles Calm Calm - N/A   Clear
3:55 AM 35.1°F 32.0°F 89% 29.78 in 10.0 miles Calm Calm - N/A   Clear
4:55 AM 34.0°F 30.9°F 89% 29.80 in 7.0 miles East 3.5 mph - N/A   Clear
5:30 AM 33.8°F 30.2°F 87% 29.78 in 2.0 miles Calm Calm - N/A   Scattered Clouds
5:32 AM 33.8°F 30.2°F 87% 29.78 in 0.8 miles Calm Calm - N/A   Mist
5:41 AM 33.8°F 30.2°F 87% 29.78 in 0.2 miles East 4.6 mph - N/A Fog Fog
5:51 AM 33.8°F 30.2°F 87% 29.78 in 1.5 miles East 4.6 mph - N/A   Scattered Clouds
5:53 AM 33.8°F 30.2°F 87% 29.78 in 3.0 miles ENE 8.1 mph - N/A   Scattered Clouds
5:55 AM 33.1°F 30.0°F 89% 29.81 in 5.0 miles East 9.2 mph - N/A   Scattered Clouds
6:55 AM 37.0°F 30.9°F 79% 29.82 in 10.0 miles East 9.2 mph - N/A   Scattered Clouds
7:55 AM 36.0°F 32.0°F 86% 29.84 in 10.0 miles ENE 8.1 mph - N/A   Partly Cloudy
8:55 AM 37.0°F 32.0°F 82% 29.84 in 10.0 miles East 8.1 mph - N/A   Clear
9:55 AM 39.0°F 33.1°F 79% 29.85 in 10.0 miles East 4.6 mph - N/A   Mostly Cloudy
10:55 AM 39.0°F 34.0°F 82% 29.85 in 10.0 miles Calm Calm - N/A   Scattered Clouds
12:55 PM 44.1°F 36.0°F 73% 29.81 in 10.0 miles East 5.8 mph - N/A   Mostly Cloudy
1:55 PM 46.0°F 34.0°F 63% 29.80 in 10.0 miles SE 6.9 mph 19.6 mph N/A   Partly Cloudy
2:55 PM 45.0°F 35.1°F 68% 29.79 in 10.0 miles Variable 4.6 mph - N/A   Mostly Cloudy
3:55 PM 48.0°F 33.1°F 56% 29.78 in 10.0 miles ESE 10.4 mph - N/A   Mostly Cloudy
4:55 PM 46.9°F 34.0°F 61% 29.78 in 10.0 miles East 10.4 mph - N/A   Overcast
5:55 PM 45.0°F 37.0°F 74% 29.77 in 10.0 miles ENE 12.7 mph 20.7 mph 0.00 in Rain Light Rain
6:55 PM 44.1°F 37.9°F 79% 29.74 in 9.0 miles East 9.2 mph - 0.01 in Rain Light Rain
7:55 PM 45.0°F 37.9°F 76% 29.74 in 5.0 miles ESE 12.7 mph 23.0 mph 0.06 in Rain Rain
9:55 PM 45.0°F 37.9°F 76% 29.71 in 10.0 miles East 18.4 mph 26.5 mph 0.00 in   Overcast
10:55 PM 46.0°F 37.9°F 73% 29.70 in 10.0 miles East 16.1 mph 25.3 mph N/A   Overcast
11:55 PM 45.0°F 39.0°F 80% 29.71 in 10.0 miles East 13.8 mph - 0.00 in Rain Light Rain
Moon Phase
Nov. 18 Nov. 20 Nov. 28 Dec. 06 Dec. 13
Sunrise:07:10 AM (PST) Moon Rise:11:36 AM (PST)11/18
Sunset:04:21 PM (PST) Moon Set:09:53 PM (PST)11/18

Copyright © 2014 The Weather Underground, Inc.